Wind_Speed
34 31 29 19 16 12 8 6 5 6 3 7 9 12 15 16 15 13 11 11 12 12 13 12 11 10 9 8 7 8 6 10 11 9 12 14 14 15 17 18 20 21 22 23
38 38 35 28 23 21 16 12 10 9 8 7 10 12 12 11 14 13 11 12 11 9 9 8 7 6 5 4 3 1 4 8 12 12 13 14 16 18 22 22 22 22 23 26
41 47 41 34 31 28 25 22 17 12 12 12 11 10 10 10 12 12 12 10 8 6 7 4 2 3 2 1 0 2 6 11 12 14 17 18 20 21 24 26 25 25 26 26
49 49 46 38 36 35 31 31 25 17 18 15 14 13 11 13 17 14 14 12 9 9 8 6 5 5 5 5 5 8 11 13 14 17 19 22 25 25 25 28 30 29 30 31
54 52 52 45 45 42 44 36 31 26 24 17 18 16 14 15 17 16 17 14 13 12 10 10 8 7 8 9 12 14 16 17 19 20 22 23 25 26 29 32 33 33 34 34
63 61 58 51 52 47 46 38 35 30 30 21 24 23 17 21 15 17 20 18 17 16 14 12 12 12 13 15 18 20 21 23 24 25 25 27 26 30 30 31 33 36 36 36
73 67 66 60 57 56 46 41 36 34 33 27 31 25 28 26 20 22 18 21 21 21 18 17 16 16 19 23 24 26 27 28 28 29 27 27 28 30 31 31 33 39 39 44
79 73 71 66 62 62 58 51 46 42 38 38 40 32 37 29 25 24 28 26 26 25 24 23 23 22 25 29 30 31 30 31 31 29 29 29 30 32 34 36 36 37 40 39
85 80 80 76 71 69 64 56 52 50 47 44 44 44 41 32 31 34 35 31 30 30 30 29 30 29 30 33 34 35 32 32 31 31 30 30 31 33 35 37 39 39 47 39
88 88 85 83 81 76 70 67 63 53 49 43 49 45 45 38 40 41 40 38 35 34 34 33 34 33 34 36 37 38 36 35 34 33 33 33 35 37 40 44 46 45 45 44
92 92 92 92 85 79 76 74 68 61 56 50 52 50 55 43 44 45 44 42 40 40 41 39 39 38 38 40 41 40 39 38 38 37 35 36 40 42 44 46 45 44 52 45
83 97 98 90 88 89 88 82 78 73 59 53 51 52 62 49 46 47 48 45 47 46 45 43 42 41 43 43 44 42 41 40 41 40 37 38 41 45 47 50 50 48 46 45
78 87 99 98 97 97 92 85 80 74 68 61 58 57 60 63 55 52 50 49 48 46 48 46 45 45 46 45 45 45 45 43 43 43 41 43 44 48 50 52 50 45 43 47
77 80 93 98 96 94 93 90 87 83 77 67 58 62 62 67 65 61 56 53 51 50 48 47 48 48 46 46 47 48 49 49 48 48 47 48 48 50 48 49 46 48 47 47
71 75 83 93 100 102 98 97 93 91 81 78 68 64 64 64 73 73 66 55 51 51 53 52 52 51 49 49 50 52 54 53 52 53 54 55 55 52 50 45 43 46 49 52
66 72 76 85 95 104 103 99 97 94 90 85 77 70 69 68 74 73 71 61 58 55 59 57 56 54 54 54 53 54 57 58 57 58 61 62 60 55 51 46 43 46 51 51
61 68 71 74 85 99 107 103 98 95 93 89 80 71 75 75 76 75 73 69 62 60 61 62 60 60 58 58 58 58 61 64 62 63 66 68 65 59 55 48 47 52 55 58
63 68 66 67 80 92 91 99 101 99 96 93 86 84 78 79 80 81 78 72 67 66 66 65 65 65 64 62 62 65 66 67 67 69 71 72 71 67 61 53 52 54 59 64
64 65 67 67 71 78 85 96 103 103 98 94 89 85 82 82 84 81 81 77 73 71 70 69 69 68 68 68 68 69 69 69 70 71 74 75 74 69 63 60 59 61 65 66
69 65 65 63 65 68 80 85 95 103 100 94 92 89 85 87 86 82 87 83 80 76 75 75 73 72 72 73 74 74 73 73 73 73 73 72 69 67 66 66 67 68 72 73
72 69 66 66 63 68 68 80 88 99 97 96 94 92 92 89 86 91 89 88 83 81 79 80 78 77 77 78 79 78 76 75 75 73 71 69 68 68 71 71 70 74 76 78
73 70 68 68 64 64 65 70 81 88 93 96 95 93 92 91 88 89 90 90 87 85 85 84 83 82 81 82 81 80 78 78 74 71 70 69 71 69 71 75 75 76 75 76
75 70 70 66 62 57 61 69 72 80 81 90 96 94 93 93 92 89 87 87 87 87 88 88 87 86 84 83 81 79 77 72 71 71 70 70 75 76 73 75 79 79 77 75
71 68 69 73 62 56 56 61 64 66 70 77 88 93 93 93 92 90 87 84 85 84 86 87 84 83 81 80 78 77 74 71 71 73 72 74 74 78 80 77 71 76 75 76
63 67 64 66 64 52 51 54 56 60 64 70 78 88 92 92 91 88 86 83 84 84 83 82 82 81 80 78 77 76 73 72 74 75 78 76 79 80 80 78 75 78 80 79
62 61 65 62 58 44 42 43 45 49 60 66 70 77 82 87 88 86 85 85 85 83 82 82 82 82 81 79 79 78 76 74 77 79 80 79 80 79 80 76 78 82 80 81
Wind_Direction
247 252 252 244 250 235 218 203 194 145 154 140 144 127 120 124 125 125 129 125 125 125 123 121 117 114 108 104 106 112 84 40 29 20 0 13 0 355 352 354 352 347 346 346
238 245 247 245 242 243 225 215 211 207 181 184 165 153 131 138 138 144 146 143 138 135 126 119 122 127 116 76 73 122 44 5 3 358 356 349 348 342 343 345 344 343 341 343
240 239 246 243 242 243 237 228 214 214 219 206 201 188 171 182 178 171 173 177 182 174 170 159 156 213 215 221 108 325 332 338 346 346 340 342 343 339 336 337 341 342 343 345
240 244 246 244 243 243 242 236 228 212 227 228 217 219 201 188 182 188 194 202 197 196 203 220 236 250 246 259 277 297 312 322 324 330 335 338 337 335 337 338 340 344 344 346
238 241 242 244 243 239 239 238 231 225 231 225 238 231 222 215 202 201 206 207 212 218 226 234 246 253 261 276 285 293 305 314 317 323 327 328 329 330 336 343 341 341 342 339
234 240 243 241 241 241 240 237 235 225 235 230 238 241 231 234 226 219 223 225 227 232 235 238 247 260 269 278 288 298 305 309 312 316 321 324 327 329 339 339 336 336 336 331
230 235 239 240 245 245 240 240 237 233 234 240 244 245 242 243 231 240 242 242 243 245 251 251 252 261 273 282 288 293 298 302 308 313 319 320 324 329 334 330 330 331 329 336
229 231 238 238 240 246 245 241 238 238 235 234 239 242 239 242 243 246 245 243 247 255 256 257 263 266 272 278 285 289 293 299 304 310 313 320 325 328 326 324 328 327 323 322
229 228 233 236 233 236 244 238 240 237 232 230 240 238 245 234 242 241 244 250 255 258 261 263 265 269 273 277 281 284 290 296 302 308 313 317 321 320 319 320 319 318 325 311
225 227 230 233 234 235 237 239 235 236 238 235 239 242 246 239 236 241 246 247 250 255 259 262 265 270 272 276 280 285 290 295 302 305 309 315 317 318 320 321 320 321 320 319
227 226 229 230 234 236 234 239 242 238 236 234 234 236 244 240 240 241 244 248 251 253 256 259 263 269 273 276 279 283 289 293 297 300 307 315 315 316 317 318 318 314 317 317
227 224 226 228 230 231 233 231 233 236 235 237 232 239 250 247 245 244 246 246 250 254 257 260 264 267 270 273 276 281 285 289 294 297 303 305 309 313 314 315 315 313 311 312
232 225 225 224 227 230 233 232 234 235 235 235 237 235 243 251 248 248 247 250 254 256 260 263 266 267 269 272 276 281 286 287 288 290 298 302 305 307 311 314 312 308 307 311
237 229 223 224 225 228 231 233 234 234 233 233 233 232 236 249 254 252 250 249 253 259 261 264 265 267 271 274 279 283 284 285 288 292 297 299 300 303 308 308 307 310 309 309
240 233 223 223 224 225 228 230 230 231 231 232 227 229 228 234 247 251 251 253 256 259 261 262 266 268 271 274 277 280 283 286 289 291 294 295 298 301 308 304 304 304 308 311
243 239 228 223 224 226 226 228 230 231 232 231 229 226 226 228 240 245 252 253 254 257 262 265 267 270 272 275 277 280 282 284 288 291 292 295 297 301 307 300 299 303 306 307
243 243 236 228 227 227 226 226 230 232 231 233 230 228 227 228 233 241 244 247 249 253 258 263 266 268 271 273 275 278 282 284 288 290 292 294 297 304 305 298 298 300 304 307
241 235 238 235 230 229 228 228 228 230 232 233 230 229 228 229 232 236 241 244 246 249 253 256 261 265 268 271 275 278 281 283 287 291 294 297 301 303 302 299 298 301 304 305
239 235 234 238 237 230 227 228 229 229 229 231 232 233 233 232 233 238 243 244 245 247 250 253 256 261 265 268 271 275 278 281 284 287 291 295 299 302 300 300 302 301 303 303
238 236 235 232 241 240 230 229 231 230 227 230 231 232 232 233 235 237 241 243 245 246 249 252 255 259 263 266 268 271 274 279 283 287 291 295 297 297 296 298 300 301 303 306
235 233 234 234 239 242 238 234 231 231 228 228 229 231 232 232 234 238 241 244 245 248 251 255 257 259 261 265 269 272 277 281 284 288 291 292 292 291 294 298 300 301 305 305
233 233 235 234 235 240 244 242 234 234 231 228 229 230 233 235 233 236 242 246 248 250 252 255 257 259 262 265 270 275 278 281 284 287 287 290 288 290 293 299 300 302 301 301
229 233 234 237 240 238 242 242 240 233 234 229 229 230 232 235 236 236 238 244 248 251 254 256 259 262 265 269 272 274 277 279 282 283 286 288 288 292 294 295 297 299 298 298
226 229 232 236 240 240 242 245 244 240 236 234 230 231 232 235 236 238 239 242 246 251 254 257 260 264 266 269 271 273 276 279 282 283 284 284 289 290 293 295 293 296 296 297
225 230 232 236 240 244 245 241 239 239 236 232 231 231 232 234 237 238 241 242 246 249 253 256 259 263 265 267 269 272 275 278 281 283 283 286 287 289 291 293 294 295 296 297
219 227 232 236 239 233 227 229 234 238 239 237 233 231 233 235 238 239 241 242 245 248 253 256 259 262 264 266 268 271 275 277 279 280 284 286 288 290 291 291 291 294 294 294
Height
10960 10964 10967 10971 10973 10974 10975 10975 10975 10975 10976 10975 10973 10973 10972 10973 10975 10978 10981 10982 10982 10982 10983 10984 10984 10985 10985 10986 10986 10986 10986 10985 10984 10983 10982 10980 10980 10979 10977 10975 10973 10969 10966 10962
10954 10956 10958 10965 10968 10969 10972 10973 10974 10974 10974 10976 10975 10973 10973 10975 10975 10978 10980 10982 10984 10983 10983 10983 10984 10984 10985 10985 10986 10985 10984 10982 10982 10981 10980 10979 10978 10977 10975 10972 10970 10968 10964 10960
10946 10943 10948 10956 10960 10963 10965 10968 10969 10971 10972 10974 10974 10973 10973 10974 10976 10977 10979 10982 10982 10983 10983 10983 10983 10983 10983 10983 10983 10983 10982 10980 10979 10978 10978 10977 10975 10973 10971 10970 10968 10965 10961 10957
10935 10934 10939 10947 10952 10955 10958 10958 10964 10967 10967 10969 10971 10972 10972 10972 10973 10974 10977 10980 10981 10981 10981 10981 10981 10980 10980 10980 10980 10980 10979 10978 10977 10976 10975 10974 10972 10969 10967 10965 10962 10958 10954 10951
10926 10926 10927 10936 10939 10944 10945 10951 10956 10960 10961 10965 10965 10967 10969 10970 10971 10972 10975 10978 10979 10978 10978 10978 10978 10977 10977 10977 10977 10976 10976 10975 10974 10973 10972 10970 10967 10965 10963 10960 10956 10952 10948 10943
10909 10913 10915 10925 10925 10931 10933 10943 10948 10954 10955 10960 10960 10961 10964 10964 10968 10970 10971 10973 10974 10973 10973 10973 10973 10974 10973 10972 10972 10972 10971 10971 10970 10969 10968 10965 10962 10960 10958 10954 10950 10947 10942 10938
10889 10900 10902 10910 10914 10917 10926 10934 10941 10946 10950 10955 10953 10956 10956 10959 10963 10964 10968 10968 10968 10968 10968 10969 10968 10968 10968 10967 10967 10967 10967 10965 10965 10964 10963 10960 10958 10956 10953 10949 10945 10942 10939 10933
10873 10885 10891 10898 10905 10904 10911 10921 10931 10936 10939 10942 10944 10951 10949 10954 10958 10959 10959 10961 10961 10962 10964 10964 10963 10964 10964 10963 10962 10961 10961 10960 10959 10959 10956 10955 10953 10950 10947 10943 10940 10937 10934 10929
10850 10867 10865 10876 10883 10888 10896 10907 10918 10922 10928 10932 10934 10937 10941 10950 10950 10950 10952 10955 10955 10956 10957 10958 10958 10959 10958 10957 10955 10954 10954 10953 10953 10952 10950 10950 10948 10945 10942 10938 10935 10931 10926 10921
10831 10838 10851 10857 10861 10874 10883 10889 10895 10910 10918 10926 10923 10928 10930 10938 10942 10942 10944 10946 10948 10949 10950 10952 10951 10951 10950 10949 10948 10946 10946 10946 10945 10944 10944 10943 10940 10937 10934 10930 10926 10923 10919 10914
10803 10816 10824 10829 10851 10865 10872 10875 10883 10894 10903 10911 10913 10918 10912 10926 10930 10933 10935 10937 10939 10941 10941 10944 10944 10944 10942 10941 10940 10939 10938 10938 10937 10937 10937 10934 10930 10929 10927 10925 10920 10914 10908 10904
10774 10787 10797 10823 10833 10835 10842 10857 10863 10870 10893 10902 10907 10909 10896 10913 10919 10921 10922 10926 10927 10930 10931 10934 10935 10935 10932 10932 10932 10932 10932 10932 10931 10930 10931 10930 10926 10922 10920 10914 10910 10906 10900 10894
10750 10771 10779 10794 10803 10813 10828 10847 10857 10866 10873 10885 10892 10898 10892 10890 10903 10908 10912 10915 10916 10919 10920 10923 10924 10925 10924 10923 10922 10922 10923 10924 10924 10923 10923 10920 10918 10915 10910 10905 10900 10894 10891 10885
10732 10744 10762 10777 10793 10803 10809 10826 10837 10846 10856 10872 10885 10886 10888 10883 10886 10893 10900 10905 10907 10908 10910 10913 10913 10914 10915 10914 10913 10912 10912 10912 10913 10912 10911 10910 10909 10907 10903 10896 10890 10883 10878 10875
10716 10727 10740 10752 10765 10771 10788 10799 10812 10822 10843 10847 10866 10872 10880 10882 10869 10872 10882 10893 10897 10898 10898 10900 10901 10902 10903 10903 10903 10903 10901 10901 10901 10900 10898 10896 10896 10896 10892 10887 10882 10874 10866 10861
10702 10712 10719 10732 10742 10750 10762 10780 10792 10808 10820 10832 10843 10858 10863 10865 10858 10864 10869 10878 10884 10886 10883 10884 10887 10889 10890 10890 10892 10892 10890 10888 10889 10886 10883 10881 10881 10881 10880 10875 10871 10867 10858 10852
10689 10695 10704 10718 10722 10729 10736 10760 10776 10794 10804 10815 10834 10849 10842 10848 10848 10848 10853 10860 10869 10873 10873 10873 10875 10876 10878 10878 10880 10879 10875 10871 10873 10871 10866 10864 10865 10866 10865 10863 10858 10853 10846 10841
10672 10678 10686 10696 10698 10708 10743 10746 10755 10768 10785 10799 10812 10817 10828 10832 10833 10830 10837 10846 10854 10858 10859 10862 10862 10862 10863 10865 10865 10862 10860 10858 10858 10854 10848 10847 10848 10849 10846 10846 10845 10840 10834 10828
10656 10665 10672 10678 10684 10697 10713 10719 10728 10742 10762 10779 10796 10807 10815 10817 10815 10824 10825 10831 10836 10841 10843 10846 10847 10849 10849 10851 10850 10848 10847 10847 10846 10843 10839 10837 10835 10833 10829 10828 10827 10824 10819 10814
10639 10649 10657 10668 10673 10683 10688 10705 10708 10719 10743 10762 10775 10785 10794 10795 10803 10815 10805 10813 10819 10825 10828 10828 10833 10835 10835 10835 10833 10834 10836 10836 10834 10831 10830 10826 10823 10819 10814 10813 10811 10806 10801 10796
10623 10634 10644 10651 10658 10662 10678 10681 10689 10697 10724 10739 10751 10764 10767 10776 10791 10787 10795 10797 10804 10809 10813 10814 10819 10821 10821 10819 10817 10819 10823 10823 10821 10820 10817 10813 10810 10805 10800 10798 10795 10789 10782 10777
10609 10618 10628 10636 10645 10652 10661 10663 10671 10685 10701 10720 10730 10742 10751 10759 10770 10772 10778 10782 10789 10794 10796 10799 10801 10804 10806 10806 10807 10808 10809 10807 10807 10805 10801 10798 10794 10792 10788 10783 10778 10774 10769 10762
10593 10605 10614 10625 10630 10642 10643 10648 10652 10662 10682 10699 10709 10721 10732 10738 10747 10756 10762 10769 10775 10779 10780 10782 10783 10786 10791 10792 10793 10794 10793 10794 10793 10790 10788 10785 10778 10775 10773 10768 10763 10759 10753 10747
10583 10593 10601 10607 10620 10627 10633 10637 10644 10652 10665 10677 10691 10701 10712 10721 10729 10740 10749 10754 10757 10762 10763 10765 10770 10773 10774 10775 10776 10775 10777 10779 10777 10774 10772 10769 10764 10758 10753 10750 10744 10740 10733 10726
10576 10579 10590 10600 10607 10618 10620 10623 10630 10636 10645 10655 10668 10682 10692 10702 10712 10722 10731 10740 10742 10743 10747 10750 10753 10755 10755 10757 10757 10758 10761 10764 10761 10755 10752 10751 10745 10741 10736 10731 10726 10721 10713 10705
10557 10571 10576 10588 10598 10611 10612 10617 10623 10627 10633 10641 10651 10664 10675 10685 10696 10707 10715 10720 10725 10729 10733 10735 10736 10738 10738 10740 10738 10742 10747 10747 10741 10738 10735 10730 10726 10722 10717 10713 10706 10701 10694 10687